SCP
0 0 0 0 0 0 0 0 0 0 0 0 0 0 0 0 0 0 0 0 0 0 0 0 0 0 0 0 0 0 0 0 0 0 0 0 0 0 0 0 0 0 0 0 0 0 0 0 0
0 0 0 0 0 0 0 0 0 0 0 0 0 0 0 0 0 0 0 0 0 0 0 0 0 0 0 0 0 0 0 0 0 0 0 0 0 0 0 0 0 0 0 0 0 0 0 0 0
0 0 0 0 0 0 0 0 0 0 0 0 0 0 0 0 0 0 0 0 0 0 0 0 0 0 0 0 0 0 0 0 0 0 0 0 0 0 0 0 0 0 0 0 0 0 0 0 0
0 0 0 0 0 0 0 0 0 0 0 0 0 0 0 0 0 0 0 0 0 0 0 0 0 0 0 0 0 0 0 0 0 0 0 0 0 0 0 0 0 0 0 0 0 0 0 0 0
0 0 0 0 0 0 0 0 0 0 0 0 0 0 0 0 0 0 0 0 0 0 0 0 0 0 0 0 0 0 0 0 0 0 0 0 0 0 0 0 0 0 0 0 0 0 0 0 0
0 0 0 0 0 0 0 0 0 0 0 0 0 0 0 0 0 0 0 0 0 0 0 0 0 0 0 0 0 0 0 0 0 0 0 0 0 0 0 0 0 0 0 0 0 0 0 0 0
0 0 0 0 0 0 0 0 0 0 0 0 0 0 0 0 0 0 0 0 0 0 0 0 0 0 0 0 0 0 0 0 0 0 0 0 0 0 0 0 0 0 0 0 0 0 0 0 0
0 0 0 0 0 0 0 0 0 0 0 0 0 0 0 0 0 0 0 0 0 0 0 0 0 0 0 0 0 0 0 0 0 0 0 0 0 0 0 0 0 0 0 0 0 0 0 0 0
0 0 0 0 0 0 0 0 0 0 0 0 0 0 0 0 0 0 0 0 0 0 0 0 0 0 0 0 0 0 0 0 0 0 0 0 0 0 0 0 0 0 0 0 0 0 0 0 0
0 0 0 0 0 0 0 0 0 0 0 0 0 0 0 0 0 0 0 0 0 0 0 0 0 0 0 0 0 0 0 0 0 0 0 0 0 0 0 0 0 0 0 0 0 0 0 0 0
0 0 0 0 0 0 0 0 0 0 0 0 0 0 0 0 0 0 0 0 0 0 0 0 0 0 0 0 0 0 0 0 0 0 0 0 0 0 0 0 0 0 0 0 0 0 0 0 0
0 0 0 0 0 0 0 0 0 0 0 0 0 0 0 0 0 0 0 0 0 0 0 0 0 0 0 0 0 0 0 0 0 0 0 0 0 0 0 0 0 0 0 0 0 0 0 0 0
0 0 0 0 0 0 0 0 0 0 0 0 0 0 0 0 0 0 0 0 0 0 0 0 0 0 0 0 0 0 0 0 0 0 0 0 0 0 0 0 0 0 0 0 0 0 0 0 0
0 0 0 0 0 0 0 0 0 0 0 0 0 0 0 0 0 0 0 0 0 0 0 0 0 0 0 0 0 0 0 0 0 0 0 0 0 0 0 0 0 0 0 0 0 0 0 0 0
0 0 0 0 0 0 0 0 0 0 0 0 0 0 0 0 0 0 0 0 0 0 0 0 0 0 0 0 0 0 0 0 0 0 0 0 0 0 0 0 0 0 0 0 0 0 0 0 0
0 0 0 0 0 0 0 0 0 0 0 0 0 0 0 0 0 0 0 0 0 0 0 0 0 0 1 0 0 0 0 0 0 0 1 1 0 0 0 0 0 0 0 0 0 0 0 0 0
0 0 0 0 0 0 0 0 0 0 0 0 0 0 0 0 0 0 0 0 0 1 1 1 1 1 1 1 1 0 0 0 0 0 1 1 0 0 0 0 0 0 0 0 0 0 0 0 0
0 0 0 0 0 0 0 0 0 0 0 0 0 0 0 0 0 0 0 0 1 1 1 1 1 1 1 1 1 1 1 1 1 1 1 1 1 0 0 0 0 0 0 0 0 0 0 0 0
0 0 0 0 0 0 0 0 0 0 0 0 0 0 0 0 0 0 0 0 1 1 1 1 1 1 1 1 1 1 1 1 1 1 1 1 1 0 0 0 0 0 0 0 0 0 0 0 0
0 0 0 0 0 0 0 0 0 0 0 0 0 0 0 0 0 1 1 1 1 1 1 1 1 1 1 1 1 1 1 1 1 1 1 1 1 0 0 0 0 0 0 0 0 0 0 0 0
0 0 0 0 0 0 0 0 0 0 0 0 0 0 0 0 1 1 1 1 1 1 1 1 1 1 1 1 1 1 1 1 1 1 1 1 1 1 1 0 0 0 0 0 0 0 0 0 0
0 0 0 0 0 0 0 0 0 0 0 0 0 0 0 0 1 1 1 1 1 1 1 1 1 1 1 1 1 1 1 1 1 1 1 1 1 1 1 1 0 0 0 0 0 0 0 0 0
0 0 0 0 0 0 0 0 0 0 0 0 0 0 0 0 1 1 1 1 1 1 1 1 1 2 2 1 1 1 1 1 1 1 1 1 1 1 1 1 1 0 0 0 0 0 0 0 0
0 0 0 0 0 0 0 0 0 0 0 0 0 0 0 0 1 1 1 1 1 1 1 1 2 2 2 1 1 1 1 1 1 1 1 1 1 1 1 1 1 1 0 0 0 0 0 0 0
0 0 0 0 0 0 0 0 0 0 0 0 0 0 0 0 0 1 1 1 1 1 1 2 2 2 2 1 1 1 1 1 1 1 1 1 1 1 1 1 1 1 1 0 0 0 0 0 0
0 0 0 0 0 0 0 0 0 0 0 0 0 0 0 0 0 1 1 1 1 1 1 2 2 2 2 1 1 1 1 1 1 1 1 1 1 1 1 1 1 1 1 0 0 0 0 0 0
0 0 0 0 0 0 0 0 0 0 0 0 0 0 0 0 0 1 1 1 1 1 1 2 2 2 2 2 1 1 1 1 1 1 1 1 1 1 1 1 1 1 1 0 0 0 0 0 0
0 0 0 0 0 0 0 0 0 0 0 0 0 0 0 0 1 1 1 1 1 1 1 2 2 2 2 2 1 1 1 1 1 1 1 1 1 1 1 1 1 1 1 0 0 0 0 0 0
0 0 0 0 0 0 0 0 0 0 0 0 0 0 0 1 1 1 1 1 1 1 1 2 2 2 2 2 1 1 1 1 1 1 1 1 1 1 1 1 1 1 1 0 0 0 0 0 0
0 0 0 0 0 0 0 0 0 0 0 0 0 0 1 1 1 1 1 1 1 1 1 2 2 2 2 2 2 1 1 1 1 1 1 1 1 1 1 1 1 1 1 0 0 0 0 0 0
Wind_Speed
9 11 9 5 1 5 13 14 14 15 15 16 16 16 17 17 13 12 9 12 15 15 13 13 12 13 13 13 13 13 14 14 14 14 14 14 14 13 13 13 14 14 14 13 14 13 13 12 11
10 12 8 3 3 9 12 13 14 14 13 14 16 18 18 17 15 13 11 12 15 15 13 13 13 13 13 13 13 13 14 14 14 13 13 13 13 13 12 12 13 13 13 12 13 12 12 11 10
12 14 5 2 9 11 12 12 12 12 12 14 15 15 13 12 14 11 11 13 15 16 14 13 13 13 13 13 13 13 13 14 13 13 13 12 12 12 12 11 12 12 12 12 12 12 11 10 9
10 6 2 6 15 13 12 11 11 12 13 13 14 13 13 11 12 13 12 14 15 17 15 13 13 13 13 12 13 13 13 13 13 13 12 12 12 11 11 11 12 12 11 11 11 11 10 9 7
8 4 4 10 14 13 12 12 12 13 14 16 17 16 14 14 15 14 12 13 14 16 15 14 13 13 12 12 13 13 13 12 12 12 12 11 11 11 11 11 11 11 10 10 11 10 9 8 6
5 2 5 10 13 12 12 13 13 14 15 16 16 15 12 12 12 11 12 11 14 16 15 13 13 13 13 13 12 12 12 12 12 11 11 11 10 10 10 10 10 10 10 10 10 9 8 6 5
4 1 7 12 13 12 12 12 12 13 12 12 13 13 11 11 10 10 10 10 12 14 14 12 11 11 13 13 12 12 11 11 11 10 10 9 10 10 10 10 10 10 9 9 9 8 7 5 4
3 2 7 12 13 13 12 12 13 13 12 11 11 11 12 12 11 11 10 10 9 10 10 11 11 11 11 11 12 11 11 10 10 9 8 9 10 9 10 10 10 10 9 8 8 7 6 5 4
2 2 6 12 12 12 13 13 13 13 11 11 13 16 17 15 13 12 10 9 8 8 7 7 9 9 10 11 11 11 10 9 8 7 7 7 5 6 7 10 10 9 8 8 7 6 6 5 4
3 4 10 12 13 13 13 13 12 12 13 14 16 17 17 14 12 11 10 10 9 8 7 5 6 6 7 8 8 6 7 6 4 4 6 4 2 4 7 10 10 9 8 7 7 7 6 5 3
6 6 10 13 13 12 12 12 11 12 12 14 16 17 15 13 10 10 10 9 9 8 6 6 5 4 5 5 5 3 4 4 4 4 3 2 3 4 5 4 6 5 6 4 6 6 4 3 2
6 7 9 12 12 12 11 11 12 12 13 15 16 16 14 12 10 8 9 9 9 8 7 6 6 4 4 3 3 3 3 3 3 3 2 2 2 2 2 2 3 3 2 2 2 2 2 2 2
6 7 9 11 12 12 12 12 14 14 16 16 16 14 13 11 9 8 9 8 8 8 8 7 5 4 3 3 1 2 3 4 3 3 2 2 2 2 2 1 1 1 1 2 1 1 1 0 0
6 7 9 10 11 12 13 12 12 14 15 15 15 12 12 11 10 9 8 8 8 8 8 7 6 5 3 1 1 1 2 2 2 3 3 2 1 2 2 1 1 0 1 1 1 1 1 0 0
3 6 8 9 10 11 11 10 11 13 15 14 13 12 11 11 10 9 8 7 8 8 8 7 6 6 4 2 1 1 1 3 2 2 3 2 1 2 1 0 1 1 0 1 0 1 0 1 0
5 6 7 9 9 10 9 7 10 13 14 13 12 12 11 10 9 9 9 8 7 8 7 6 6 7 5 2 1 0 1 2 2 2 2 3 2 1 1 1 1 1 1 1 1 1 0 0 0
8 8 8 8 9 9 9 9 10 12 13 13 12 11 11 10 10 9 9 9 8 7 6 5 4 6 5 4 2 1 1 1 1 2 2 3 2 2 1 1 1 1 1 1 1 1 0 1 1
9 10 9 8 9 9 10 11 11 12 12 13 12 12 11 10 10 10 9 9 9 8 7 6 4 5 5 4 2 1 1 2 2 2 2 2 2 2 1 2 2 1 0 0 0 0 1 1 2
8 6 6 7 8 7 9 11 12 11 11 12 12 12 11 11 11 11 10 9 9 8 7 6 5 5 4 3 3 2 2 2 2 3 4 3 2 2 2 1 1 1 1 1 1 0 2 2 1
8 6 6 7 9 7 6 8 11 10 11 12 12 12 12 11 11 11 10 9 9 8 7 6 6 6 5 3 2 2 2 2 2 1 2 3 2 2 3 2 2 1 1 1 1 1 1 2 1
10 9 8 7 7 7 5 4 7 9 9 11 12 12 12 12 12 11 11 10 10 9 8 7 6 6 5 4 3 2 1 1 1 2 2 2 3 3 2 2 2 2 2 2 2 2 2 2 2
9 9 8 8 8 7 7 5 7 10 9 10 11 11 12 12 12 12 11 10 9 9 9 7 6 5 5 4 4 4 3 2 2 1 2 2 2 3 3 2 2 2 2 1 2 2 1 2 2
8 8 8 9 8 7 6 5 6 9 10 11 12 11 11 12 13 12 12 10 9 10 10 8 7 6 5 4 4 3 2 2 1 1 2 1 2 2 2 2 2 2 2 2 1 1 1 1 2
8 8 8 9 7 8 7 6 4 5 8 10 11 11 10 10 11 11 11 10 9 9 9 9 8 7 6 5 4 4 3 2 1 1 2 1 1 2 2 2 2 2 2 2 2 1 1 1 2
10 8 6 7 6 7 8 7 3 5 6 6 9 9 9 9 10 11 11 11 10 9 8 9 9 7 7 6 5 4 3 3 2 2 2 2 1 1 1 2 2 2 2 2 2 2 1 1 2
12 12 7 5 6 7 7 6 5 7 6 6 6 7 8 7 8 9 10 10 10 10 8 8 9 8 7 6 5 3 3 3 2 3 2 2 1 1 2 1 1 2 2 2 2 1 2 2 1
12 11 11 8 8 7 5 5 6 7 8 7 7 7 7 7 7 8 9 9 9 8 8 8 9 8 7 7 5 4 4 3 2 2 2 2 1 1 2 2 1 1 1 1 1 1 1 1 1
12 11 8 7 5 6 5 6 6 9 9 8 7 7 7 7 6 7 7 8 8 8 7 8 8 8 7 6 6 5 4 3 2 1 1 1 1 0 1 1 1 2 1 1 1 1 1 0 1
13 13 10 6 6 7 5 2 2 7 7 7 7 8 7 7 6 6 6 7 8 8 9 8 8 8 7 6 6 4 4 4 3 2 1 1 1 0 1 1 1 1 1 1 1 1 1 0 0
13 13 12 7 6 7 5 2 3 5 7 7 7 8 7 5 5 5 6 5 5 6 7 7 7 8 7 6 5 5 4 4 3 3 2 1 1 1 1 1 1 1 2 1 1 1 1 1 1
Wind_Direction
271 251 229 245 254 69 70 68 67 64 61 57 59 66 61 55 70 91 110 108 105 105 105 98 92 92 92 91 90 91 91 91 94 97 95 95 96 97 99 100 101 101 101 101 102 101 101 100 100
277 265 238 246 71 74 69 70 71 70 74 73 72 73 70 69 82 98 108 110 109 106 101 97 97 94 92 91 91 92 91 91 92 95 98 100 101 102 101 100 102 103 104 104 104 104 104 104 104
264 260 264 100 71 75 76 76 80 82 81 82 77 66 62 76 85 100 115 115 107 103 99 101 101 98 96 93 92 93 94 92 92 92 94 98 101 100 100 103 107 106 107 108 108 107 107 107 107
267 249 209 80 79 79 83 87 91 90 81 81 84 76 69 74 94 110 120 114 109 105 104 105 103 101 99 97 95 93 94 94 94 94 92 92 99 100 99 101 107 106 108 110 110 108 109 110 109
252 267 91 83 83 83 84 85 87 86 81 81 85 90 87 86 101 113 115 111 108 106 107 109 107 105 103 101 98 96 96 96 96 95 95 94 96 99 102 104 105 108 111 111 110 111 111 112 112
263 252 95 94 90 88 84 86 89 88 92 95 98 97 92 101 106 110 104 103 107 108 109 112 110 109 108 106 102 100 99 99 98 99 99 99 101 103 106 107 108 110 111 112 114 115 116 117 120
263 277 111 103 97 90 86 88 91 94 92 94 104 104 111 111 105 101 100 99 103 109 116 122 122 117 114 111 109 108 105 104 105 106 108 111 115 115 114 113 112 113 115 116 118 122 124 130 142
317 359 95 100 99 97 95 90 89 90 87 100 111 113 127 126 121 109 100 91 92 100 112 124 128 128 127 122 121 119 116 117 116 118 125 127 128 130 130 123 116 117 120 124 127 133 140 151 171
358 14 79 95 101 104 104 98 96 96 90 78 84 109 125 131 127 119 115 110 102 97 102 112 122 135 134 132 134 136 133 133 136 142 149 153 154 145 141 122 128 129 133 139 144 153 162 171 193
85 74 81 90 100 106 109 109 114 112 105 97 98 109 123 131 132 132 132 124 122 119 116 110 113 126 132 128 139 151 145 150 170 151 168 180 146 127 123 130 142 145 150 158 170 180 185 196 199
86 88 93 98 105 111 113 113 115 116 115 118 124 127 132 133 136 137 128 126 129 127 118 111 98 90 111 120 143 139 130 144 154 137 137 132 124 128 130 144 149 159 170 181 174 193 209 200 195
105 99 96 102 106 107 106 105 95 94 108 120 125 132 137 140 140 137 130 132 129 125 122 116 100 77 53 71 107 132 133 136 133 133 151 120 98 94 106 128 150 164 170 179 184 207 206 204 196
122 113 108 107 111 110 104 98 100 103 109 118 126 135 138 139 140 133 127 131 131 130 123 112 103 87 67 44 13 100 100 118 128 127 113 99 113 111 109 106 91 131 145 172 196 226 193 211 227
131 133 124 121 123 116 111 109 110 115 122 127 132 139 145 143 143 138 137 137 139 135 132 130 130 122 112 98 11 49 102 111 112 116 116 104 94 97 96 112 109 108 163 140 155 176 203 274 77
161 153 141 137 133 124 116 116 123 134 135 136 142 146 147 145 148 147 146 150 149 142 140 143 146 139 141 156 210 119 109 113 103 106 111 112 96 98 117 154 171 177 162 123 183 193 199 231 185
202 200 167 150 151 143 122 128 141 149 146 145 149 148 148 149 154 149 148 153 148 142 141 157 158 145 150 159 179 79 68 97 102 106 116 129 126 148 152 157 157 170 189 190 205 202 196 312 289
201 212 182 161 167 156 144 154 161 159 151 151 153 153 155 157 161 153 156 159 151 141 143 153 144 146 156 166 173 178 132 105 120 131 131 143 167 187 178 186 187 226 217 206 237 106 162 229 257
200 202 184 175 169 165 151 149 162 165 160 158 160 160 162 165 170 162 166 161 154 149 150 153 158 148 158 165 164 193 180 171 176 158 153 156 183 186 196 198 205 215 219 223 25 166 251 241 244
226 209 182 170 165 171 161 156 164 169 170 166 166 165 167 170 171 164 167 161 156 152 156 161 171 162 168 172 182 187 191 201 195 181 168 176 193 185 211 226 184 202 195 215 220 209 251 252 251
239 229 204 179 165 174 174 166 165 176 181 173 171 170 173 172 168 164 168 166 162 159 162 165 174 171 181 183 181 194 197 214 205 169 157 176 192 215 214 191 203 186 182 217 232 230 258 264 222
229 229 222 187 173 183 188 195 175 180 190 174 175 174 176 175 172 167 171 172 172 168 169 173 175 172 180 183 185 203 194 240 226 185 169 181 191 210 234 200 191 181 205 210 229 231 227 263 269
229 227 234 213 202 203 202 215 207 190 193 187 179 177 178 178 174 172 174 175 175 171 169 166 167 170 173 181 195 201 202 211 217 198 167 181 200 212 207 210 201 199 215 208 231 212 235 250 273
238 231 227 237 233 238 216 220 207 187 194 194 183 181 180 177 173 173 175 173 178 177 172 169 163 169 171 182 194 208 223 216 204 177 168 186 208 213 207 184 217 212 210 213 242 271 265 265 274
227 239 237 240 246 238 233 240 209 187 196 194 178 175 174 172 171 171 170 167 174 179 176 169 163 168 172 181 191 202 222 222 228 191 180 190 208 223 208 181 212 216 210 205 214 237 253 265 285
220 224 220 221 231 236 225 227 179 178 182 178 158 162 166 170 169 169 169 167 172 177 175 167 163 170 176 185 193 197 205 213 221 228 204 210 233 221 220 207 182 205 194 196 198 201 238 257 267
214 223 226 228 230 234 230 222 176 177 135 119 133 149 153 156 157 163 165 167 171 175 173 167 165 170 177 187 190 189 191 206 216 220 232 204 234 238 178 193 185 187 182 202 177 192 219 230 247
212 226 235 243 263 265 228 180 168 154 138 142 138 147 149 150 155 161 165 165 164 171 172 171 163 168 177 184 181 184 187 197 206 201 210 229 227 238 154 152 152 133 149 213 200 190 223 233 250
236 220 228 239 255 267 251 212 172 163 153 145 146 148 139 147 154 157 160 159 162 168 166 169 165 167 173 178 182 185 184 181 187 215 200 206 223 331 80 108 127 138 160 172 203 201 184 225 260
221 228 234 229 233 245 248 271 124 148 139 143 149 140 138 143 148 148 143 151 160 166 172 172 165 166 171 177 180 171 167 169 173 187 200 194 183 158 130 117 116 134 116 128 140 139 140 135 47
227 232 227 229 228 244 244 175 109 131 136 140 134 128 121 123 127 124 127 134 147 160 166 164 164 166 168 166 167 168 159 159 165 171 168 165 155 129 123 141 127 115 113 118 104 71 48 35 32